Tracking 23099 objects as of 13-May-2021
HD Live streaming from Space Station
objects crossing your sky now

ATLAS D R/B

Track ATLAS D R/B now!
10-day predictions


NORAD ID: 2328
Int'l Code: 1966-063C
Perigee: 1,000.3 km
Apogee: 1,014.5 km
Inclination: 144.2 °
Period: 105.1 minutes
Semi major axis: 7378 km
RCS: 1.0156 m2 (large)
Launch date: July 14, 1966
Source: United States (US)
Launch site: AIR FORCE WESTERN TEST RANGE (AFWTR)

Note: This is a ROCKET BODY
aabbcc
Your satellite tracking list
Your tracking list is empty




NASA's NSSDC Master Catalog

Two Line Element Set (TLE):
1  2328U 66063C   21132.84972880  .00000259  00000-0  13089-4 0  9992
2  2328 144.2338 345.3186 0009599 359.2871  18.1030 13.69808612745428
Source of the keplerian elements: AFSPC